{"data":{"norad_id":64694,"intl_designator":"2025-141A","name":"GOSAT-GW (IBUKI GW)","alt_names":[],"object_type":"PAYLOAD","status":"ACTIVE","operator":null,"country":"JPN","launch_date":"2025-06-28","launch_site_code":"TANSC","launch_vehicle":null,"mission":null,"orbit_class":"UNKNOWN","rcs_meters":null,"size_class":null,"mass_kg":null,"dimensions":null,"purposes":["earth_obs"],"wikipedia_slug":null,"has_3d_model":false,"image_url":null,"decayed_at":null,"tle_current":{"epoch":"2026-09-19T23:05:51.300384Z","epoch_age_seconds":64753,"freshness":"FRESH","line1":"1 64694U 25141A   26262.96239931  .00000406  00000+0  79921-4 0  9993","line2":"2 64694  98.0606 198.7476 0001419  84.5616 275.5751 14.67552705 65743","mean_motion":14.67552705,"eccentricity":0.0001419,"inclination_deg":98.0606,"raan_deg":198.7476,"arg_perigee_deg":84.5616,"mean_anomaly_deg":275.5751,"bstar":7.9921e-5,"rev_number":6574,"period_min":98.122540682449,"perigee_km":667.891666039,"apogee_km":669.89161276687,"semimajor_km":7047.0286394029,"source":"CELESTRAK","updated_at":"2026-09-20T09:00:33.981521Z"}}}